Home > Weather > Cochabamba > Past weeks

Flag for Bolivia Past Weather in Cochabamba, Bolivia — Yesterday and Last 2 Weeks

Now
61 °F

Clear.


Feels Like: 61 °F
Forecast: 43 / 76 °F
Wind: No wind

Location: Cochabamba Airport

Current Time: Jul 24, 2016 at 10:47:59 AM

Latest Report: Jul 24, 2016 at 10:00 AM


Visibility: 3 mi

Pressure: 30.30 "Hg (22.33 "Hg at 2584m altitude)

Humidity: 19%

Dew Point: 18 °F

Location of CochabambaLocation

Past Weather in Cochabamba — Graph

°F

Cochabamba Temperature Yesterday

Maximum temperature yesterday: 81 °F (at 3:00 PM)
Minimum temperature yesterday: 41 °F (at 6:00 AM)
Average temperature yesterday: 60 °F

High & Low Weather Summary for the Past Weeks

 TemperatureHumidityPressure
High84 °F (Jul 22, 4:00 PM)81% (Jul 15, 7:00 AM)30.42 "Hg (Jul 15, 7:00 AM)
Low39 °F (Jul 24, 7:00 AM)5% (Jul 22, 4:00 PM)30.07 "Hg (Jul 15, 3:00 PM)
Average61 °F34%30.25 "Hg
* Reported Jul 9 9:00 AM — Jul 24 9:00 AM, Cochabamba, Weather by CustomWeather, © 2016

Note: Actual official high and low records may vary slightly from our data, if they occured in-between our weather recording intervals... More about our weather records

Advertising

Cochabamba Weather History for the Previous 24 Hours

Scroll right to see more
 ConditionsComfort  
Time TempWeatherWind HumidityBarometerVisibility
9:00 AM
Sun, Jul 24
54 °FClear.No wind28%30.30 "Hg3 mi
8:00 AM46 °FClear.No wind46%30.30 "Hg3 mi
7:00 AM39 °FClear.No wind56%30.27 "Hg3 mi
6:00 AM43 °FClear.No wind53%30.24 "Hg5 mi
5:00 AM43 °FClear.No wind57%30.24 "Hg5 mi
4:00 AM45 °FClear.3 mph53%30.21 "HgN/A
3:00 AM48 °FClear.5 mph43%30.21 "HgN/A
2:00 AM48 °FClear.5 mph43%30.24 "HgN/A
1:00 AM50 °FClear.5 mph37%30.24 "HgN/A
12:00 AM52 °FClear.No wind38%30.24 "HgN/A
11:00 PM
Sat, Jul 23
55 °FClear.No wind28%30.24 "HgN/A
10:00 PM61 °FClear.5 mph22%30.21 "HgN/A
9:00 PM64 °FClear.6 mph19%30.21 "HgN/A
8:00 PM64 °FClear.No wind18%30.18 "HgN/A
7:00 PM68 °FClear.6 mph12%30.15 "HgN/A
6:00 PM72 °FClear.6 mph13%30.12 "HgN/A
5:00 PM81 °FClear.3 mph6%30.12 "HgN/A
4:00 PM81 °FClear.No wind5%30.12 "HgN/A
3:00 PM81 °FClear.No wind6%30.15 "HgN/A
2:00 PM79 °FClear.5 mph7%30.18 "HgN/A
1:00 PM75 °FClear.3 mph10%30.24 "HgN/A
12:00 PM70 °FClear.No wind12%30.27 "Hg4 mi
11:00 AM68 °FClear.No wind16%30.33 "Hg4 mi
10:00 AM63 °FClear.No wind20%30.33 "Hg2 mi
Weather by CustomWeather, © 2016

See weather overviewHow to use our weather pages